Regional Weather Roundup
Issued by NWS

Home | Current Version | Previous Version | Text Only | Print | Product List | Glossary On
Versions: 1 2 3 4 5 6 7 8 9 10 11 12 13 14 15 16 17 18 19 20 21 22 23 24 25 26 27 28 29 30 31 32 33 34 35 36 37 38 39 40 41 42 43 44 45 46 47 48 49 50
000
ASUS43 KLSX 011607
RWRMO

WEATHER SUMMARY FOR MISSOURI
NATIONAL WEATHER SERVICE SPRINGFIELD MO
1100 AM CDT WED OCT 01 2014

NOTE: "FAIR" INDICATES FEW OR NO CLOUDS BELOW 12,000 FEET WITH NO
       SIGNIFICANT WEATHER AND/OR OBSTRUCTIONS TO VISIBILITY.
       CURRENT SKY AND/OR WEATHER CONDITIONS ARE NOT AVAILABLE FOR
       CHILLICOTHE AND FARMINGTON.

MOZ001>031-035>038-043-044-053-054-011700-
...NORTHERN AND WESTERN MISSOURI...

CITY           SKY/WX    TMP DP  RH WIND       PRES   REMARKS
KANSAS CTY INT CLOUDY    67  65  93 SE8       29.79R
KANSAS C DTWN  TSTM      69  65  86 E5        29.78F FOG
LEE`S SUMMIT   CLOUDY    72  64  76 SW8       29.81R
ST JOSEPH      CLOUDY    69  65  86 S8        29.78S
CHILLICOTHE      N/A     64  62  93 SE8       29.84R
KIRKSVILLE     LGT RAIN  62  61  96 SE12      29.85F FOG

$$
MOZ066>068-077>081-088>096-101>105-011700-
...SOUTHWEST MISSOURI...

CITY           SKY/WX    TMP DP  RH WIND       PRES   REMARKS
SPRINGFIELD    MOSUNNY   78  63  59 S16       29.86R
JOPLIN         MOSUNNY   81  68  64 S16G25    29.81F

$$
MOZ032>034-039>042-045>050-055>058-069>072-011700-
...CENTRAL MISSOURI...

CITY           SKY/WX    TMP DP  RH WIND       PRES   REMARKS
COLUMBIA       CLOUDY    72  59  63 N17       29.88R
JEFFERSON CITY MOSUNNY   82  58  43 S10G20    29.84F
ROLLA          SUNNY     81  57  43 S16G28    29.86F
SEDALIA        CLOUDY    69  63  81 E6        29.83R HAZE
WHITEMAN AFB   PTSUNNY   71  65  82 E5        29.80F
OSAGE BEACH    MOSUNNY   79  61  53 S7        29.85S

$$
MOZ051-052-059>065-011700-
...EAST CENTRAL MISSOURI...

CITY           SKY/WX    TMP DP  RH WIND       PRES   REMARKS
ST LOUIS INTL  MOSUNNY   77  61  57 S8        29.92S
SPIRIT OF STL  MOSUNNY   77  61  57 VRB5      29.89S
ST CHARLES     PTSUNNY   77  60  55 S10       29.90

$$
MOZ072>076-082>087-097>100-106>115-011700-
...SOUTH CENTRAL AND SOUTHEAST MISSOURI...

CITY           SKY/WX    TMP DP  RH WIND       PRES   REMARKS
CAPE GIRARDEAU SUNNY     78  62  57 S7        29.93F
FARMINGTON     SUNNY     79  61  53 S14       29.94F
POPLAR BLUFF   SUNNY     81  63  54 S8        29.91F
WEST PLAINS    SUNNY     79  62  56 S12       29.92F

$$


USA.gov is the U.S. government's official web portal to all federal, state and local government web resources and services.